Location: Grand Rapids
(42.9630°N, 85.6680°W)
Time: 03:34:01
(UTC-04:00)

S-56A Canister/Altair - Pass Details

Date: 31 May 2024
Orbit: 637 x 2489 km, 38.9° (Epoch: 22 June)

Event Time Altitude Azimuth Distance (km) Brightness Sun altitude
Rises 05:56:25 0° 245° (WSW) 6,143 - -2.4°
Exits shadow 05:57:16 - 244° (WSW) 5,937 11.4 -2.3°
Reaches altitude 10° 06:00:29 10° 243° (WSW) 5,144 11.1 -1.8°
Maximum altitude 06:15:13 67° 165° (SSE) 2,376 10.0 0.5°
Drops below altitude 10° 06:26:39 10° 87° (E) 4,089 12.6 2.3°
Sets 06:29:30 0° 85° (E) 4,859 13.1 2.8°
